QPF
0.00 0.00 0.00 0.00 0.00 0.00 0.00 0.00 0.00 0.00 0.00 0.01 0.04 0.08 0.04 0.03 0.07 0.08 0.07 0.06 0.02 0.01
0.00 0.00 0.00 0.00 0.00 0.00 0.00 0.00 0.00 0.00 0.00 0.00 0.02 0.05 0.04 0.03 0.03 0.08 0.09 0.08 0.05 0.03
0.00 0.00 0.00 0.00 0.00 0.00 0.00 0.00 0.00 0.00 0.00 0.00 0.00 0.03 0.07 0.03 0.02 0.04 0.07 0.10 0.08 0.05
0.00 0.00 0.00 0.00 0.00 0.00 0.00 0.00 0.00 0.00 0.00 0.00 0.00 0.00 0.05 0.06 0.03 0.04 0.04 0.07 0.08 0.06
0.00 0.00 0.00 0.00 0.00 0.00 0.00 0.00 0.00 0.00 0.00 0.00 0.00 0.00 0.01 0.04 0.05 0.04 0.06 0.05 0.06 0.05
0.00 0.00 0.00 0.00 0.00 0.00 0.00 0.00 0.00 0.00 0.00 0.00 0.00 0.00 0.01 0.01 0.03 0.04 0.04 0.10 0.07 0.03
0.00 0.00 0.00 0.00 0.00 0.00 0.00 0.00 0.00 0.00 0.00 0.00 0.00 0.00 0.00 0.01 0.02 0.04 0.03 0.03 0.11 0.11
0.00 0.00 0.00 0.00 0.00 0.00 0.00 0.00 0.00 0.00 0.00 0.00 0.00 0.00 0.00 0.02 0.04 0.02 0.02 0.01 0.02 0.09
0.00 0.00 0.00 0.00 0.00 0.00 0.00 0.00 0.00 0.00 0.01 0.01 0.01 0.01 0.01 0.02 0.03 0.04 0.02 0.01 0.01 0.01
0.00 0.00 0.00 0.00 0.00 0.00 0.00 0.00 0.00 0.01 0.01 0.01 0.02 0.02 0.03 0.03 0.02 0.01 0.02 0.01 0.00 0.01
0.00 0.00 0.00 0.00 0.00 0.00 0.01 0.01 0.01 0.01 0.02 0.03 0.01 0.03 0.04 0.04 0.02 0.00 0.00 0.01 0.00 0.01
0.00 0.00 0.00 0.00 0.00 0.00 0.01 0.02 0.02 0.02 0.03 0.04 0.03 0.04 0.05 0.05 0.02 0.00 0.00 0.00 0.00 0.01
0.00 0.01 0.00 0.00 0.00 0.00 0.01 0.03 0.04 0.03 0.04 0.05 0.05 0.04 0.05 0.06 0.04 0.01 0.00 0.00 0.00 0.02
0.01 0.01 0.00 0.00 0.00 0.00 0.00 0.03 0.05 0.05 0.04 0.06 0.06 0.06 0.06 0.06 0.05 0.03 0.00 0.00 0.00 0.02
MSLP
1023.38 1022.51 1021.77 1021.05 1020.39 1019.87 1019.08 1018.04 1017.04 1016.15 1015.55 1014.95 1014.38 1013.93 1013.29 1011.99 1011.48 1010.55 1009.08 1008.48 1008.69 1008.92
1023.20 1022.48 1021.66 1020.89 1020.27 1019.63 1019.03 1018.05 1017.02 1016.27 1015.40 1014.74 1013.94 1013.68 1013.30 1011.30 1010.80 1010.58 1009.81 1007.82 1007.97 1008.29
1022.92 1022.29 1021.56 1020.74 1019.94 1019.27 1018.72 1017.94 1017.05 1016.17 1015.30 1014.45 1013.79 1013.11 1012.60 1011.46 1010.79 1010.18 1009.09 1007.96 1007.38 1007.53
1022.24 1021.75 1021.19 1020.51 1019.75 1018.94 1018.25 1017.61 1016.78 1015.99 1015.15 1014.28 1013.47 1012.91 1012.41 1011.73 1010.66 1010.19 1009.35 1008.28 1006.75 1006.68
1021.51 1020.98 1020.44 1019.84 1019.15 1018.48 1017.71 1017.03 1016.34 1015.54 1014.82 1013.94 1013.10 1012.43 1011.99 1011.44 1010.51 1009.56 1009.10 1008.04 1006.71 1006.08
1020.66 1020.11 1019.51 1018.90 1018.32 1017.73 1017.09 1016.42 1015.76 1015.09 1014.30 1013.48 1012.67 1011.98 1011.21 1010.57 1010.10 1009.79 1008.34 1007.66 1006.87 1005.48
1019.85 1019.26 1018.67 1017.99 1017.44 1016.95 1016.38 1015.77 1015.21 1014.54 1013.74 1012.98 1012.23 1011.54 1010.87 1010.01 1009.18 1008.47 1008.30 1006.57 1005.90 1005.45
1019.13 1018.48 1017.81 1017.15 1016.57 1016.07 1015.63 1015.07 1014.51 1013.83 1013.11 1012.37 1011.66 1010.91 1010.22 1009.68 1009.05 1008.22 1006.86 1007.18 1005.43 1004.56
1018.32 1017.63 1016.94 1016.32 1015.80 1015.23 1014.71 1014.15 1013.67 1013.00 1012.35 1011.66 1010.82 1010.13 1009.62 1009.15 1008.50 1007.72 1006.80 1005.28 1004.60 1003.66
1017.54 1016.76 1016.11 1015.51 1014.93 1014.36 1013.79 1013.29 1012.78 1012.08 1011.46 1010.74 1010.10 1009.34 1008.72 1008.20 1007.61 1006.73 1005.68 1005.06 1004.15 1003.41
1016.76 1016.02 1015.32 1014.74 1014.16 1013.55 1012.95 1012.44 1011.97 1011.43 1010.79 1010.07 1009.22 1008.49 1007.97 1007.30 1006.49 1005.67 1004.82 1003.81 1002.89 1002.08
1016.11 1015.31 1014.56 1013.92 1013.43 1012.83 1012.20 1011.60 1011.09 1010.52 1009.75 1009.11 1008.28 1007.68 1007.04 1006.18 1005.21 1004.19 1003.31 1002.48 1001.99 1001.36
1015.35 1014.55 1013.76 1013.12 1012.63 1012.12 1011.55 1010.92 1010.41 1009.74 1009.02 1008.23 1007.39 1006.70 1005.97 1005.09 1004.13 1002.98 1001.94 1001.28 999.50 999.26
1014.38 1013.63 1012.95 1012.32 1011.87 1011.41 1010.85 1010.30 1009.76 1009.18 1008.40 1007.59 1006.69 1005.79 1004.96 1004.24 1003.53 1002.79 1001.57 1000.21 999.29 997.97
Thickness
5257 5267 5280 5297 5313 5330 5348 5368 5388 5408 5427 5444 5462 5477 5492 5513 5529 5550 5568 5583 5591 5596
5239 5249 5260 5271 5286 5303 5320 5342 5362 5381 5401 5422 5442 5460 5473 5502 5517 5529 5544 5574 5582 5587
5225 5232 5243 5255 5266 5278 5295 5315 5336 5356 5376 5398 5419 5438 5453 5479 5499 5513 5534 5556 5571 5579
5218 5224 5232 5241 5251 5262 5274 5291 5312 5331 5352 5374 5396 5417 5436 5451 5476 5493 5514 5534 5559 5571
5209 5217 5226 5235 5244 5252 5263 5274 5290 5310 5330 5352 5374 5396 5418 5439 5452 5477 5496 5518 5542 5558
5202 5212 5223 5231 5240 5247 5256 5266 5276 5290 5310 5331 5353 5374 5397 5422 5442 5451 5479 5500 5518 5548
5199 5208 5219 5229 5236 5243 5251 5260 5269 5279 5293 5312 5331 5353 5376 5398 5422 5441 5456 5488 5510 5528
5196 5205 5216 5226 5234 5241 5247 5255 5264 5273 5284 5296 5313 5334 5356 5378 5395 5418 5445 5460 5493 5516
5194 5203 5214 5224 5232 5239 5246 5254 5261 5270 5278 5289 5302 5317 5335 5359 5380 5397 5426 5451 5480 5505
5191 5202 5213 5223 5232 5239 5246 5252 5258 5267 5275 5284 5294 5304 5319 5339 5364 5386 5411 5433 5461 5485
5190 5200 5212 5223 5231 5239 5246 5250 5256 5262 5269 5277 5287 5295 5305 5323 5347 5378 5402 5425 5449 5475
5189 5200 5212 5223 5231 5238 5245 5250 5255 5262 5269 5274 5281 5289 5298 5313 5336 5368 5397 5419 5438 5459
5191 5202 5214 5225 5232 5238 5245 5250 5253 5259 5266 5272 5280 5289 5299 5313 5328 5356 5388 5412 5441 5459
5195 5206 5217 5227 5234 5239 5246 5249 5251 5256 5262 5268 5278 5289 5301 5313 5326 5339 5368 5401 5425 5453